Location: Lake Crest
(37.6062°N, 88.9176°W)
Time: 20:59:59
(UTC+00:00)

Cosmos 1500 - Pass Details

Date: 15 December 2019
Orbit: 499 x 520 km, 82.5° (Epoch: 24 January)

Event Time Altitude Azimuth Distance (km) Brightness Sun altitude
Rises 11:13:50 0° 178° (S) 2,626 7.0 -20.9°
Reaches altitude 10° 11:15:58 10° 174° (S) 1,741 6.1 -20.5°
Maximum altitude 11:19:44 60° 94° (E) 595 3.7 -19.8°
Drops below altitude 10° 11:23:30 10° 15° (NNE) 1,744 5.9 -19.1°
Sets 11:25:39 0° 12° (NNE) 2,632 6.8 -18.7°
